Neijiang Gaoxin

operational
NORAD ID: 63985 Int'l Des: NNA 2025-100 Owner: GUOX/ZJLAB Country: CN
LEOCIRCULARRETROGRADESSO

About Neijiang Gaoxin

Description loading...

Live Position

Loading 3D Globe...

Upcoming Passes

Altitude History

Altitude vs Time

uPlot chart will show altitude changes over time

Two-Line Element Set

1 63985U 25100D 26046.94394983 .00039412 00000-0 12664-2 0 9996
2 63985 97.3785 123.6804 0007582 11.2939 348.8472 15.32140161 42289
Epoch: Feb 15, 2026 • Age: 9 hours

Current Status

Altitude 474.2 km
Velocity 7.63 km/s
Sub-Earth Point -24.10°S, 138.27°W
Launch Date May 14, 2025
Age 0.7 years
Type other

Technical Details

Classification Payload
Mass 50.00 kg
Dry Mass 50.00 kg
Total Mass 50.00 kg
Length 0.30 m
Diameter 0.30 m
Span 0.30 m
Shape Box + 2 pan
Manufacturer GUOX
Bus Type XSD
Phase Status In Orbit
Owner/State GUOX/ZJLAB/CN

Large Constellations

Loading constellations...